Chillicothe, MO

1:52 PM CST on February 24, 2017 (GMT -0600)
Chillicothe

Weather History for KCDJ - November, 2012

Change the Weather History Date:

Thursday, November 15, 2012

  Actual Average (KIRK) Record (KIRK)
Temperature  
Mean Temperature 46 °F -  
Max Temperature 57 °F 51 °F 76 °F (1950)
Min Temperature 35 °F 34 °F 2 °F (1940)
Degree Days  
Heating Degree Days 19    
Moisture  
Dew Point 31 °F    
Average Humidity 61    
Maximum Humidity 89    
Minimum Humidity 40    
Precipitation  
Precipitation 0.00 in - - ()
Sea Level Pressure  
Sea Level Pressure 30.35 in    
Wind  
Wind Speed 4 mph (South)    
Max Wind Speed 9 mph    
Max Gust Speed -    
Averages and records for this station are not official NWS values.
T = Trace of Precipitation, MM = Missing Value Source: NWS Daily Summary

Daily Weather History Graph

Daily Weather History Graph

Search for Another Location

Airport or City:

Trip Planner

Search our weather history database for the weather conditions in past years. The results will help you decide how hot, cold, wet, or windy it might be!

Date:

Astronomy

Nov. 15, 2012 Rise Set
Actual Time 6:59 AM CST 4:57 PM CST
Civil Twilight 6:30 AM CST 5:26 PM CST
Nautical Twilight 5:57 AM CST 5:59 PM CST
Astronomical Twilight 5:26 AM CST 6:31 PM CST
Moon 8:55 AM CST (11/15) 6:50 PM CST (11/15)
Length of Visible Light 10h 56m
Length of Day
9h 58m
Waxing Crescent, 5% of the Moon is Illuminated
Nov 15
Waxing Crescent
Nov 20
First Quarter
Nov 28
Full
Dec 6
Last Quarter
Dec 13
New

Hourly Weather History & Observations

Time (CST) Temp. Windchill Dew Point Humidity Pressure Visibility Wind Dir Wind Speed Gust Speed Precip Events Conditions
12:52 AM 43.0 °F 39.5 °F 26.1 °F 51% 30.31 in - SSE 5.8 mph - N/A   Unknown
1:52 AM 41.0 °F 39.0 °F 26.1 °F 55% 30.31 in - SE 3.5 mph - N/A   Unknown
2:52 AM 39.0 °F 36.8 °F 25.0 °F 57% 30.32 in - SSE 3.5 mph - N/A   Unknown
3:52 AM 37.9 °F 35.5 °F 26.1 °F 62% 30.31 in - SSE 3.5 mph - N/A   Unknown
4:52 AM 37.0 °F 34.5 °F 25.0 °F 62% 30.31 in - SSE 3.5 mph - N/A   Unknown
5:52 AM 37.0 °F - 28.0 °F 70% 30.32 in - Calm Calm - N/A   Unknown
6:52 AM 35.1 °F - 27.0 °F 72% 30.34 in - Calm Calm - N/A   Unknown
7:52 AM 37.9 °F - 26.1 °F 62% 30.35 in - Calm Calm - N/A   Unknown
8:52 AM 41.0 °F 39.0 °F 28.0 °F 60% 30.36 in - SE 3.5 mph - N/A   Unknown
9:52 AM 46.9 °F - 30.0 °F 52% 30.35 in - South 6.9 mph - N/A   Unknown
10:52 AM 52.0 °F - 33.1 °F 49% 30.35 in - SSW 6.9 mph - N/A   Unknown
11:52 AM 55.0 °F - 35.1 °F 47% 30.32 in - South 6.9 mph - N/A   Unknown
12:52 PM 57.0 °F - 33.1 °F 40% 30.31 in - South 6.9 mph - N/A   Unknown
1:52 PM 57.9 °F - 35.1 °F 42% 30.30 in - South 9.2 mph - N/A   Unknown
2:52 PM 57.9 °F - 34.0 °F 41% 30.31 in - SSW 6.9 mph - N/A   Unknown
3:52 PM 55.9 °F - 35.1 °F 45% 30.32 in - SSW 3.5 mph - N/A   Unknown
4:52 PM 53.1 °F - 37.0 °F 55% 30.34 in - Calm Calm - N/A   Unknown
5:52 PM 46.9 °F - 37.0 °F 68% 30.36 in - Calm Calm - N/A   Unknown
6:52 PM 46.9 °F - 37.0 °F 68% 30.38 in - Calm Calm - N/A   Unknown
7:52 PM 46.0 °F - 37.9 °F 73% 30.38 in - Calm Calm - N/A   Unknown
8:52 PM 39.9 °F - 35.1 °F 83% 30.40 in - Calm Calm - N/A   Unknown
9:52 PM 37.9 °F - 33.1 °F 83% 30.41 in - Calm Calm - N/A   Unknown
10:52 PM 35.1 °F - 32.0 °F 89% 30.42 in - Calm Calm - N/A   Unknown
11:52 PM 35.1 °F - 30.9 °F 85% 30.42 in - Calm Calm - N/A   Unknown